N9OJR Weather Reports


time (UTC)temp
C
wind
direction
speed
KPH
gust
KPH
rain 1hr
cm
rain 24hr
cm
rain mn
cm
humidity
%
barometer
mb
20260505122330 16 246 0.0 1.6 0.00 0.00 0.00 78 1002.9
20260505121827 16 336 1.6 3.2 0.00 0.00 0.00 78 1003.1
20260505121324 16 232 0.0 3.2 0.00 0.00 0.00 78 1002.9
20260505120820 16 194 1.6 3.2 0.00 0.00 0.00 78 1002.8
20260505120316 15 294 0.0 3.2 0.00 0.00 0.00 78 1002.8
20260505115814 15 189 1.6 3.2 0.00 0.00 0.00 78 1002.7
20260505115312 15 355 1.6 4.8 0.00 0.00 0.00 78 1002.7
20260505114810 15 260 0.0 3.2 0.00 0.00 0.00 79 1003.0
20260505114306 15 218 4.8 9.7 0.00 0.00 0.00 78 1003.0
20260505113803 16 30 1.6 9.7 0.00 0.00 0.00 78 1002.8
20260505113259 16 259 3.2 4.8 0.00 0.00 0.00 77 1003.0
20260505112755 16 253 1.6 9.7 0.00 0.00 0.00 77 1003.0
20260505112252 16 233 1.6 4.8 0.00 0.00 0.00 77 1002.8
20260505111747 16 262 1.6 3.2 0.00 0.00 0.00 76 1002.8
20260505111243 16 279 3.2 4.8 0.00 0.00 0.00 76 1002.8
20260505110739 16 212 1.6 8.0 0.00 0.00 0.00 77 1002.9
20260505110237 16 73 1.6 9.7 0.00 0.00 0.00 77 1002.7
20260505102212 16 250 1.6 4.8 0.00 0.00 0.00 78 1002.4
20260505101711 16 275 1.6 3.2 0.00 0.00 0.00 77 1002.5
20260505101206 16 292 0.0 1.6 0.00 0.00 0.00 77 1002.4
20260505100703 16 246 0.0 8.0 0.00 0.00 0.00 77 1002.4
20260505100200 16 225 0.0 8.0 0.00 0.00 0.00 77 1002.4
20260505095656 16 318 1.6 4.8 0.00 0.00 0.00 76 1002.4
20260505095154 16 312 1.6 4.8 0.00 0.00 0.00 77 1002.4
20260505094649 16 199 0.0 4.8 0.00 0.00 0.00 76 1002.4
20260505094146 16 12 3.2 4.8 0.00 0.00 0.00 76 1002.3
20260505093642 16 290 0.0 3.2 0.00 0.00 0.00 76 1002.1
20260505093140 16 320 1.6 3.2 0.00 0.00 0.00 76 1002.0
20260505092636 16 263 3.2 4.8 0.00 0.00 0.00 75 1002.1
20260505092135 16 135 4.8 11.3 0.00 0.00 0.00 75 1002.0
20260505091632 16 221 0.0 3.2 0.00 0.00 0.00 75 1002.0
20260505091130 16 279 0.0 4.8 0.00 0.00 0.00 74 1002.0
20260505090627 17 126 4.8 8.0 0.00 0.00 0.00 74 1001.8
20260505090126 17 135 1.6 11.3 0.00 0.00 0.00 73 1002.0
20260505085622 17 177 3.2 4.8 0.00 0.00 0.00 74 1001.6
20260505085121 17 69 3.2 4.8 0.00 0.00 0.00 73 1001.6
20260505084618 17 289 3.2 9.7 0.00 0.00 0.00 73 1001.6
20260505084116 17 93 8.0 11.3 0.00 0.00 0.00 73 1001.5
20260505083614 17 15 1.6 9.7 0.00 0.00 0.00 71 1001.5
20260505083110 17 22 3.2 9.7 0.00 0.00 0.00 71 1001.1
20260505082606 17 117 6.4 9.7 0.00 0.00 0.00 70 1001.0
20260505082103 17 269 6.4 11.3 0.00 0.00 0.00 71 1001.4
20260505081559 17 172 1.6 25.7 0.00 0.00 0.00 72 1001.5
20260505081056 17 131 3.2 9.7 0.00 0.00 0.00 73 1001.6
20260505080552 17 107 4.8 8.0 0.00 0.00 0.00 69 1001.2
20260505080049 17 109 3.2 11.3 0.00 0.00 0.00 70 1001.4
20260505075545 17 297 0.0 8.0 0.00 0.00 0.00 71 1001.1
20260505075042 17 182 4.8 4.8 0.00 0.00 0.00 72 1000.9
20260505074539 17 125 4.8 14.5 0.00 0.00 0.00 72 1000.9
20260505074036 17 283 1.6 8.0 0.00 0.00 0.00 74 1001.1
20260505073533 17 267 3.2 9.7 0.00 0.00 0.00 73 1000.8
20260505073032 18 105 4.8 9.7 0.00 0.00 0.00 68 1000.9
20260505072527 17 156 1.6 3.2 0.00 0.00 0.00 69 1001.1
20260505072024 17 134 0.0 4.8 0.00 0.00 0.00 69 1001.0
20260505071519 17 246 0.0 3.2 0.00 0.00 0.00 69 1000.9
20260505071018 18 234 1.6 8.0 0.00 0.00 0.00 68 1000.9
20260505070515 18 266 1.6 3.2 0.00 0.00 0.00 69 1000.7
20260505070011 18 160 3.2 8.0 0.00 0.00 0.00 68 1000.9
20260505065507 18 162 3.2 11.3 0.00 0.00 0.00 69 1001.0
20260505065004 17 290 1.6 9.7 0.00 0.00 0.00 68 1000.8
20260505064500 17 263 1.6 3.2 0.00 0.00 0.00 69 1001.1
20260505063959 18 291 0.0 4.8 0.00 0.00 0.00 69 1000.8
20260505063455 17 286 1.6 3.2 0.00 0.00 0.00 69 1000.9
20260505062951 18 285 1.6 3.2 0.00 0.00 0.00 69 1000.8
20260505062448 18 295 3.2 11.3 0.00 0.00 0.00 68 1001.0
20260505061945 18 342 1.6 3.2 0.00 0.00 0.00 69 1001.0
20260505061443 18 13 4.8 11.3 0.00 0.00 0.00 69 1001.1
20260505060941 18 231 1.6 4.8 0.00 0.00 0.00 69 1000.9
20260505060438 18 298 1.6 8.0 0.00 0.00 0.00 69 1001.1
20260505055934 18 325 1.6 3.2 0.00 0.00 0.00 69 1001.1
20260505055430 18 290 0.0 4.8 0.00 0.00 0.00 69 1001.2
20260505054927 18 229 3.2 3.2 0.00 0.00 0.00 69 1001.4
20260505054424 17 247 1.6 4.8 0.00 0.00 0.00 70 1001.6
20260505053922 17 204 1.6 3.2 0.00 0.00 0.00 71 1001.6
20260505053419 17 269 1.6 8.0 0.00 0.00 0.00 71 1001.5
20260505052916 17 245 1.6 3.2 0.00 0.00 0.00 72 1001.8
20260505052412 17 262 0.0 4.8 0.00 0.00 0.00 71 1001.7
20260505051910 17 263 0.0 3.2 0.00 0.00 0.00 72 1001.7
20260505051407 17 214 1.6 8.0 0.00 0.00 0.00 72 1002.0
20260505050905 17 224 1.6 3.2 0.00 0.00 0.00 72 1001.8
20260505050403 17 243 1.6 3.2 0.00 0.00 0.00 72 1001.8
20260505041331 17 234 1.6 3.2 0.00 0.00 0.00 72 1002.0
20260505040828 17 243 1.6 4.8 0.00 0.00 0.00 72 1002.0
20260505040325 17 265 1.6 4.8 0.00 0.00 0.00 72 1002.1
20260505035822 17 265 0.0 3.2 0.00 0.00 0.00 72 1001.9
20260505035317 17 305 1.6 4.8 0.00 0.00 0.00 72 1002.2
20260505034815 17 215 3.2 3.2 0.00 0.00 0.00 72 1002.2
20260505034311 17 241 4.8 8.0 0.00 0.00 0.00 72 1002.0
20260505033809 17 216 1.6 4.8 0.00 0.00 0.00 72 1002.2
20260505033306 17 223 8.0 11.3 0.00 0.00 0.00 72 1002.4
20260505032804 17 341 0.0 4.8 0.00 0.00 0.00 72 1002.2
20260505032259 17 273 1.6 3.2 0.00 0.00 0.00 72 1002.4
20260505031757 17 289 1.6 4.8 0.00 0.00 0.00 72 1002.3
20260505031253 17 247 1.6 3.2 0.00 0.00 0.00 72 1002.2
20260505030751 17 275 1.6 3.2 0.00 0.00 0.00 72 1002.3
20260505030247 17 252 3.2 4.8 0.00 0.00 0.00 72 1002.5
20260505025742 17 229 0.0 3.2 0.00 0.00 0.00 71 1002.1
20260505025240 17 190 3.2 4.8 0.00 0.00 0.00 71 1002.1
20260505024738 17 346 1.6 8.0 0.00 0.00 0.00 71 1002.1
20260505024235 17 291 1.6 8.0 0.00 0.00 0.00 71 1002.1
20260505023733 17 267 4.8 8.0 0.00 0.00 0.00 71 1002.1
20260505023230 17 182 1.6 3.2 0.00 0.00 0.00 71 1002.2
20260505022727 17 268 3.2 9.7 0.00 0.00 0.00 70 1002.3
20260505022224 17 225 1.6 4.8 0.00 0.00 0.00 70 1002.2
20260505021721 17 300 0.0 8.0 0.00 0.00 0.00 71 1002.1
20260505021218 17 193 0.0 3.2 0.00 0.00 0.00 71 1002.1
20260505020713 17 229 3.2 4.8 0.00 0.00 0.00 71 1002.4
20260505020209 17 211 1.6 3.2 0.00 0.00 0.00 70 1002.3
20260505015706 17 253 0.0 4.8 0.00 0.00 0.00 70 1002.2
20260505015202 17 178 1.6 4.8 0.00 0.00 0.00 70 1002.2
20260505014659 17 88 3.2 8.0 0.00 0.00 0.00 69 1002.3
20260505014151 17 223 1.6 4.8 0.00 0.00 0.00 69 1002.3
20260505013648 17 147 3.2 3.2 0.00 0.00 0.00 69 1002.1
20260505013145 18 197 0.0 4.8 0.00 0.00 0.00 68 1002.2
20260505012644 18 219 3.2 4.8 0.00 0.00 0.00 68 1002.4
20260505012140 18 271 1.6 3.2 0.00 0.00 0.00 68 1002.1
20260505011636 18 179 1.6 1.6 0.00 0.00 0.00 67 1002.1
20260505011133 18 161 0.0 3.2 0.00 0.00 0.00 67 1001.9
20260505010628 18 224 1.6 3.2 0.00 0.00 0.00 66 1002.2
20260505010125 18 114 0.0 4.8 0.00 0.00 0.00 65 1002.5
20260505005621 18 238 0.0 3.2 0.00 0.00 0.00 65 1002.1
20260505005118 18 345 0.0 3.2 0.00 0.00 0.00 65 1002.0
20260505004615 18 21 1.6 4.8 0.00 0.00 0.00 64 1002.0
20260505004112 18 244 3.2 8.0 0.00 0.00 0.00 63 1002.0
20260505003609 19 158 3.2 9.7 0.00 0.00 0.00 62 1002.1
20260505003106 19 272 0.0 3.2 0.00 0.00 0.00 62 1001.9
20260505002601 19 257 4.8 8.0 0.00 0.00 0.00 61 1001.9
20260505002055 20 256 3.2 4.8 0.00 0.00 0.00 61 1001.8
20260505001552 20 240 3.2 8.0 0.00 0.00 0.00 61 1001.7
20260505001049 20 241 1.6 11.3 0.00 0.00 0.00 60 1001.5
20260505000547 20 229 4.8 11.3 0.00 0.00 0.00 59 1001.5
20260505000044 20 203 8.0 12.9 0.00 0.00 0.00 59 1001.4
20260504235541 20 175 1.6 4.8 0.00 0.00 0.00 58 1001.2
20260504235037 21 191 1.6 4.8 0.00 0.00 0.00 58 1001.1
20260504234534 21 257 1.6 9.7 0.00 0.00 0.00 58 1001.1
20260504234031 20 301 1.6 4.8 0.00 0.00 0.00 58 1001.4
20260504233527 20 231 3.2 3.2 0.00 0.00 0.00 59 1001.0
20260504233024 21 252 3.2 4.8 0.00 0.00 0.00 58 1001.0
20260504232521 20 138 3.2 4.8 0.00 0.00 0.00 59 1001.0
20260504232019 21 182 1.6 4.8 0.00 0.00 0.00 59 1000.8
20260504231515 21 126 1.6 8.0 0.00 0.00 0.00 58 1001.0
20260504231011 21 188 3.2 4.8 0.00 0.00 0.00 57 1001.0
20260504230508 21 191 3.2 8.0 0.00 0.00 0.00 56 1001.2
20260504230007 21 338 4.8 9.7 0.00 0.00 0.00 57 1001.2
20260504225503 21 348 1.6 8.0 0.00 0.00 0.00 57 1001.5
20260504225000 21 273 4.8 4.8 0.00 0.00 0.00 57 1001.2
20260504224456 21 238 3.2 4.8 0.00 0.00 0.00 57 1001.2
20260504223954 21 357 1.6 4.8 0.00 0.00 0.00 58 1001.5
20260504223450 21 274 1.6 4.8 0.00 0.00 0.00 58 1001.6
20260504222946 21 247 1.6 4.8 0.00 0.00 0.00 57 1001.6
20260504222444 21 96 3.2 9.7 0.00 0.00 0.00 58 1001.5
20260504221941 21 86 3.2 16.1 0.00 0.00 0.00 56 1001.4
20260504221438 21 33 3.2 14.5 0.00 0.00 0.00 55 1001.8
20260504220935 22 232 4.8 9.7 0.00 0.00 0.00 57 1001.8
20260504220431 22 100 3.2 9.7 0.00 0.00 0.00 55 1001.8
20260504215928 22 247 8.0 11.3 0.00 0.00 0.00 57 1001.7
20260504215425 21 319 3.2 14.5 0.00 0.00 0.00 59 1001.7
20260504214922 21 169 3.2 9.7 0.00 0.00 0.00 60 1001.4
20260504214418 21 287 3.2 12.9 0.00 0.00 0.00 58 1001.7
20260504213915 21 122 1.6 9.7 0.00 0.00 0.00 59 1001.5
20260504213410 22 19 1.6 9.7 0.00 0.00 0.00 58 1001.8
20260504212909 22 66 4.8 16.1 0.00 0.00 0.00 56 1001.6
20260504212404 22 164 3.2 8.0 0.00 0.00 0.00 57 1001.5
20260504211902 22 319 12.9 17.7 0.00 0.00 0.00 57 1001.6
20260504211358 22 249 3.2 4.8 0.00 0.00 0.00 58 1001.4
20260504210855 21 352 8.0 12.9 0.00 0.00 0.00 58 1001.7
20260504210352 21 239 3.2 8.0 0.00 0.00 0.00 58 1001.6
20260504205849 21 296 4.8 9.7 0.00 0.00 0.00 59 1001.9
20260504205347 21 234 1.6 9.7 0.00 0.00 0.00 59 1001.8
20260504204845 22 169 3.2 11.3 0.00 0.00 0.00 59 1001.8
20260504204343 22 243 3.2 4.8 0.00 0.00 0.00 57 1001.9
20260504203842 22 261 0.0 3.2 0.00 0.00 0.00 58 1001.9
20260504203339 21 156 3.2 4.8 0.00 0.00 0.00 58 1002.2
20260504202835 21 273 1.6 8.0 0.00 0.00 0.00 59 1002.2
20260504202332 22 138 4.8 12.9 0.00 0.00 0.00 57 1002.1
20260504201828 22 281 1.6 4.8 0.00 0.00 0.00 57 1002.1
20260504201326 22 351 3.2 11.3 0.00 0.00 0.00 56 1002.0
20260504200823 22 328 6.4 11.3 0.00 0.00 0.00 56 1002.4
20260504200320 22 305 6.4 11.3 0.00 0.00 0.00 56 1002.0
20260504195816 22 263 3.2 8.0 0.00 0.00 0.00 58 1002.1
20260504195312 21 159 4.8 8.0 0.00 0.00 0.00 57 1002.4
20260504194809 21 332 4.8 11.3 0.00 0.00 0.00 57 1002.5
20260504194305 22 79 8.0 12.9 0.00 0.00 0.00 55 1002.5
20260504193801 22 227 0.0 3.2 0.00 0.00 0.00 56 1002.6
20260504193259 22 253 3.2 3.2 0.00 0.00 0.00 57 1002.4
20260504192757 22 88 1.6 11.3 0.00 0.00 0.00 56 1002.4
20260504192255 22 300 4.8 9.7 0.00 0.00 0.00 57 1002.5
20260504191753 22 252 1.6 8.0 0.00 0.00 0.00 56 1002.8
20260504191250 22 63 1.6 4.8 0.00 0.00 0.00 58 1002.9
20260504190745 21 224 3.2 8.0 0.00 0.00 0.00 57 1002.8
20260504190242 21 261 3.2 9.7 0.00 0.00 0.00 58 1003.1
20260504185738 21 241 4.8 12.9 0.00 0.00 0.00 57 1003.1
20260504185235 21 133 3.2 8.0 0.00 0.00 0.00 56 1003.1
20260504184731 21 58 4.8 16.1 0.00 0.00 0.00 57 1003.2
20260504184227 21 9 6.4 9.7 0.00 0.00 0.00 57 1003.1
20260504183723 21 112 3.2 12.9 0.00 0.00 0.00 58 1003.1
20260504183220 21 217 3.2 8.0 0.00 0.00 0.00 61 1003.3
20260504182719 21 282 3.2 11.3 0.00 0.00 0.00 58 1003.4
20260504182215 21 208 4.8 8.0 0.00 0.00 0.00 58 1003.1
20260504181713 20 141 4.8 20.9 0.00 0.00 0.00 59 1003.3
20260504181210 21 326 4.8 12.9 0.00 0.00 0.00 59 1003.3
20260504180709 21 161 4.8 11.3 0.00 0.00 0.00 58 1003.2
20260504180208 21 159 1.6 8.0 0.00 0.00 0.00 59 1003.4
20260504175704 21 313 3.2 12.9 0.00 0.00 0.00 59 1003.4
20260504175201 20 143 4.8 11.3 0.00 0.00 0.00 58 1003.5
20260504174659 20 320 3.2 12.9 0.00 0.00 0.00 58 1003.7
20260504174156 21 148 4.8 9.7 0.00 0.00 0.00 58 1003.6
20260504173653 20 60 1.6 14.5 0.00 0.00 0.00 57 1003.4
20260504173150 20 124 3.2 9.7 0.00 0.00 0.00 57 1003.6
20260504172647 20 217 1.6 11.3 0.00 0.00 0.00 57 1003.7
20260504172143 20 168 3.2 8.0 0.00 0.00 0.00 56 1003.5
20260504171639 20 235 6.4 14.5 0.00 0.00 0.00 56 1003.7
20260504171137 20 237 3.2 8.0 0.00 0.00 0.00 56 1003.8
20260504170633 20 244 1.6 8.0 0.00 0.00 0.00 56 1003.8
20260504170131 20 225 3.2 8.0 0.00 0.00 0.00 58 1003.8
20260504151011 18 229 3.2 11.3 0.00 0.00 0.00 58 1005.0
20260504150508 18 335 4.8 8.0 0.00 0.00 0.00 59 1005.1
20260504140934 16 99 6.4 9.7 0.00 0.00 0.00 61 1005.2
20260504140430 16 336 3.2 14.5 0.00 0.00 0.00 61 1005.4
20260504130355 13 147 4.8 8.0 0.00 0.00 0.00 64 1006.0